| time (UTC) | temp F | wind direction | speed knots | gust knots | rain 1hr in | rain 24hr in | rain mn in | humidity % | barometer mb |
| 20260507234938 | 69 | 342 | 0.0 | 3.5 | 0.00 | 0.00 | 0.00 | 28 | 1010.8 |
| 20260507233931 | 69 | 341 | 0.0 | 2.6 | 0.00 | 0.00 | 0.00 | 26 | 1010.6 |
| 20260507232426 | 69 | 277 | 0.9 | 2.6 | 0.00 | 0.00 | 0.00 | 26 | 1010.8 |
| 20260507231926 | 69 | 277 | 0.9 | 4.3 | 0.00 | 0.00 | 0.00 | 26 | 1010.8 |
| 20260507231422 | 69 | 297 | 1.7 | 4.3 | 0.00 | 0.00 | 0.00 | 26 | 1010.8 |
| 20260507230422 | 70 | 293 | 1.7 | 5.2 | 0.00 | 0.00 | 0.00 | 24 | 1011.0 |
| 20260507225922 | 70 | 308 | 0.0 | 4.3 | 0.00 | 0.00 | 0.00 | 24 | 1011.0 |
| 20260507225423 | 71 | 330 | 0.0 | 4.3 | 0.00 | 0.00 | 0.00 | 24 | 1011.0 |
| 20260507224420 | 72 | 294 | 1.7 | 6.1 | 0.00 | 0.00 | 0.00 | 23 | 1011.0 |
| 20260507223918 | 72 | 259 | 2.6 | 10.4 | 0.00 | 0.00 | 0.00 | 24 | 1011.1 |
| 20260507222418 | 72 | 313 | 2.6 | 9.6 | 0.00 | 0.00 | 0.00 | 23 | 1011.1 |
| 20260507221918 | 73 | 278 | 2.6 | 7.0 | 0.00 | 0.00 | 0.00 | 24 | 1011.1 |
| 20260507221416 | 72 | 200 | 2.6 | 7.0 | 0.00 | 0.00 | 0.00 | 24 | 1011.2 |
| 20260507220411 | 72 | 230 | 3.5 | 7.8 | 0.00 | 0.00 | 0.00 | 25 | 1011.2 |
| 20260507215400 | 71 | 355 | 1.7 | 7.0 | 0.00 | 0.00 | 0.00 | 26 | 1011.5 |
| 20260507214854 | 69 | 257 | 1.7 | 6.1 | 0.00 | 0.00 | 0.00 | 27 | 1011.6 |
| 20260507214348 | 69 | 244 | 2.6 | 9.6 | 0.00 | 0.00 | 0.00 | 27 | 1011.7 |
| 20260507213842 | 69 | 216 | 2.6 | 9.6 | 0.00 | 0.00 | 0.00 | 25 | 1011.8 |
| 20260507212830 | 71 | 225 | 3.5 | 9.6 | 0.00 | 0.00 | 0.00 | 25 | 1011.9 |
| 20260507212324 | 71 | 254 | 3.5 | 10.4 | 0.00 | 0.00 | 0.00 | 25 | 1011.9 |
| 20260507211818 | 72 | 291 | 3.5 | 10.4 | 0.00 | 0.00 | 0.00 | 26 | 1012.0 |
| 20260507211312 | 72 | 280 | 3.5 | 8.7 | 0.00 | 0.00 | 0.00 | 24 | 1012.0 |
| 20260507210806 | 72 | 247 | 3.5 | 8.7 | 0.00 | 0.00 | 0.00 | 26 | 1012.2 |
| 20260507210300 | 72 | 263 | 3.5 | 9.6 | 0.00 | 0.00 | 0.00 | 25 | 1012.2 |
| 20260507205755 | 71 | 296 | 3.5 | 10.4 | 0.00 | 0.00 | 0.00 | 26 | 1012.2 |
| 20260507205248 | 72 | 223 | 3.5 | 10.4 | 0.00 | 0.00 | 0.00 | 25 | 1012.3 |
| 20260507204742 | 71 | 355 | 3.5 | 9.6 | 0.00 | 0.00 | 0.00 | 27 | 1012.3 |
| 20260507204236 | 71 | 254 | 3.5 | 9.6 | 0.00 | 0.00 | 0.00 | 26 | 1012.4 |
| 20260507203731 | 71 | 306 | 3.5 | 9.6 | 0.00 | 0.00 | 0.00 | 25 | 1012.4 |
| 20260507203224 | 70 | 234 | 3.5 | 7.8 | 0.00 | 0.00 | 0.00 | 25 | 1012.5 |
| 20260507202718 | 71 | 9 | 3.5 | 9.6 | 0.00 | 0.00 | 0.00 | 26 | 1012.6 |
| 20260507202212 | 71 | 197 | 2.6 | 9.6 | 0.00 | 0.00 | 0.00 | 26 | 1012.6 |
| 20260507201708 | 70 | 9 | 2.6 | 7.8 | 0.00 | 0.00 | 0.00 | 28 | 1012.7 |
| 20260507201200 | 70 | 80 | 3.5 | 10.4 | 0.00 | 0.00 | 0.00 | 26 | 1012.9 |
| 20260507200655 | 70 | 259 | 3.5 | 10.4 | 0.00 | 0.00 | 0.00 | 27 | 1012.9 |
| 20260507200148 | 69 | 251 | 2.6 | 8.7 | 0.00 | 0.00 | 0.00 | 27 | 1012.9 |
| 20260507195642 | 69 | 5 | 2.6 | 9.6 | 0.00 | 0.00 | 0.00 | 28 | 1013.1 |
| 20260507195136 | 68 | 336 | 3.5 | 9.6 | 0.00 | 0.00 | 0.00 | 28 | 1013.2 |
| 20260507194630 | 69 | 226 | 3.5 | 9.6 | 0.00 | 0.00 | 0.00 | 28 | 1013.2 |
| 20260507194125 | 68 | 249 | 3.5 | 9.6 | 0.00 | 0.00 | 0.00 | 28 | 1013.2 |
| 20260507193618 | 68 | 273 | 3.5 | 8.7 | 0.00 | 0.00 | 0.00 | 30 | 1013.2 |
| 20260507193112 | 67 | 250 | 3.5 | 9.6 | 0.00 | 0.00 | 0.00 | 29 | 1013.1 |
| 20260507192606 | 67 | 246 | 4.3 | 13.0 | 0.00 | 0.00 | 0.00 | 31 | 1013.1 |
| 20260507192100 | 67 | 214 | 3.5 | 13.0 | 0.00 | 0.00 | 0.00 | 29 | 1013.2 |
| 20260507191554 | 67 | 334 | 2.6 | 9.6 | 0.00 | 0.00 | 0.00 | 30 | 1013.2 |
| 20260507191047 | 67 | 245 | 2.6 | 8.7 | 0.00 | 0.00 | 0.00 | 31 | 1013.4 |
| 20260507190541 | 67 | 36 | 2.6 | 8.7 | 0.00 | 0.00 | 0.00 | 30 | 1013.6 |
| 20260507190037 | 66 | 257 | 2.6 | 9.6 | 0.00 | 0.00 | 0.00 | 30 | 1013.6 |
| 20260507185531 | 66 | 217 | 1.7 | 10.4 | 0.00 | 0.00 | 0.00 | 30 | 1013.7 |
| 20260507185024 | 66 | 127 | 1.7 | 10.4 | 0.00 | 0.00 | 0.00 | 33 | 1013.8 |
| 20260507184519 | 66 | 242 | 1.7 | 4.3 | 0.00 | 0.00 | 0.00 | 34 | 1013.8 |
| 20260507184012 | 65 | 279 | 2.6 | 6.1 | 0.00 | 0.00 | 0.00 | 33 | 1013.8 |
| 20260507183505 | 65 | 336 | 2.6 | 6.1 | 0.00 | 0.00 | 0.00 | 33 | 1013.9 |
| 20260507183001 | 65 | 286 | 2.6 | 9.6 | 0.00 | 0.00 | 0.00 | 32 | 1013.9 |
| 20260507182454 | 65 | 282 | 2.6 | 9.6 | 0.00 | 0.00 | 0.00 | 31 | 1013.9 |
| 20260507181443 | 65 | 308 | 2.6 | 7.0 | 0.00 | 0.00 | 0.00 | 33 | 1014.0 |
| 20260507180936 | 65 | 333 | 2.6 | 8.7 | 0.00 | 0.00 | 0.00 | 32 | 1014.0 |
| 20260507180431 | 65 | 220 | 2.6 | 8.7 | 0.00 | 0.00 | 0.00 | 34 | 1014.0 |
| 20260507175924 | 65 | 242 | 2.6 | 7.0 | 0.00 | 0.00 | 0.00 | 35 | 1013.9 |
| 20260507175418 | 65 | 242 | 2.6 | 7.0 | 0.00 | 0.00 | 0.00 | 35 | 1013.9 |
| 20260507174407 | 65 | 250 | 1.7 | 4.3 | 0.00 | 0.00 | 0.00 | 37 | 1014.1 |
| 20260507172851 | 64 | 243 | 1.7 | 6.1 | 0.00 | 0.00 | 0.00 | 36 | 1014.3 |
| 20260507172351 | 64 | 248 | 0.9 | 4.3 | 0.00 | 0.00 | 0.00 | 36 | 1014.4 |
| 20260507171852 | 64 | 246 | 0.9 | 4.3 | 0.00 | 0.00 | 0.00 | 38 | 1014.3 |
| 20260507171352 | 63 | 246 | 1.7 | 5.2 | 0.00 | 0.00 | 0.00 | 38 | 1014.5 |
| 20260507170852 | 63 | 244 | 1.7 | 7.0 | 0.00 | 0.00 | 0.00 | 36 | 1014.4 |
| 20260507170353 | 63 | 263 | 1.7 | 7.0 | 0.00 | 0.00 | 0.00 | 37 | 1014.4 |
| 20260507165852 | 62 | 267 | 1.7 | 7.0 | 0.00 | 0.00 | 0.00 | 36 | 1014.4 |
| 20260507165351 | 62 | 248 | 2.6 | 7.8 | 0.00 | 0.00 | 0.00 | 38 | 1014.4 |
| 20260507164848 | 62 | 254 | 2.6 | 7.8 | 0.00 | 0.00 | 0.00 | 38 | 1014.5 |
| 20260507164347 | 62 | 246 | 3.5 | 7.8 | 0.00 | 0.00 | 0.00 | 38 | 1014.5 |
| 20260507163347 | 62 | 243 | 1.7 | 5.2 | 0.00 | 0.00 | 0.00 | 38 | 1014.6 |
| 20260507162847 | 62 | 258 | 1.7 | 8.7 | 0.00 | 0.00 | 0.00 | 40 | 1014.6 |
| 20260507162350 | 61 | 261 | 2.6 | 8.7 | 0.00 | 0.00 | 0.00 | 39 | 1014.6 |
| 20260507161844 | 60 | 249 | 0.9 | 6.1 | 0.00 | 0.00 | 0.00 | 43 | 1014.7 |
| 20260507161343 | 59 | 249 | 0.9 | 4.3 | 0.00 | 0.00 | 0.00 | 46 | 1014.7 |
| 20260507160843 | 58 | 250 | 2.6 | 6.1 | 0.00 | 0.00 | 0.00 | 46 | 1014.7 |
| 20260507160343 | 58 | 265 | 1.7 | 7.0 | 0.00 | 0.00 | 0.00 | 46 | 1014.8 |
| 20260507155844 | 57 | 261 | 1.7 | 7.0 | 0.00 | 0.00 | 0.00 | 46 | 1014.8 |
| 20260507155344 | 56 | 264 | 0.9 | 6.1 | 0.00 | 0.00 | 0.00 | 47 | 1014.7 |
| 20260507154844 | 56 | 213 | 0.9 | 3.5 | 0.00 | 0.00 | 0.00 | 49 | 1014.8 |
| 20260507153340 | 54 | 261 | 1.7 | 7.0 | 0.00 | 0.00 | 0.00 | 49 | 1015.2 |
| 20260507152840 | 53 | 228 | 0.9 | 3.5 | 0.00 | 0.00 | 0.00 | 51 | 1015.2 |
| 20260507152339 | 53 | 228 | 0.9 | 3.5 | 0.00 | 0.00 | 0.00 | 52 | 1015.2 |
| 20260507151840 | 53 | 229 | 0.9 | 3.5 | 0.00 | 0.00 | 0.00 | 52 | 1015.2 |
| 20260507151339 | 52 | 228 | 0.9 | 2.6 | 0.00 | 0.00 | 0.00 | 54 | 1015.2 |
| 20260507145839 | 51 | 220 | 0.0 | 2.6 | 0.00 | 0.00 | 0.00 | 54 | 1015.3 |
| 20260507144337 | 50 | 229 | 0.9 | 3.5 | 0.00 | 0.00 | 0.00 | 55 | 1015.3 |
| 20260507143839 | 49 | 229 | 0.9 | 2.6 | 0.00 | 0.00 | 0.00 | 58 | 1015.3 |
| 20260507143339 | 49 | 229 | 0.0 | 1.7 | 0.00 | 0.00 | 0.00 | 60 | 1015.3 |
| 20260507142838 | 48 | 230 | 0.0 | 1.7 | 0.00 | 0.00 | 0.00 | 61 | 1015.2 |
| 20260507142338 | 48 | 230 | 0.0 | 0.0 | 0.00 | 0.00 | 0.00 | 63 | 1015.2 |
| 20260507141837 | 47 | 230 | 0.0 | 0.0 | 0.00 | 0.00 | 0.00 | 65 | 1015.2 |
| 20260507141335 | 46 | 231 | 0.0 | 0.0 | 0.00 | 0.00 | 0.00 | 66 | 1015.2 |
| 20260507140331 | 45 | 231 | 0.0 | 0.0 | 0.00 | 0.00 | 0.00 | 65 | 1015.3 |
| 20260507135831 | 44 | 231 | 0.0 | 0.0 | 0.00 | 0.00 | 0.00 | 65 | 1015.2 |
| 20260507135332 | 44 | 231 | 0.0 | 0.0 | 0.00 | 0.00 | 0.00 | 66 | 1015.3 |
| 20260507134332 | 43 | 231 | 0.0 | 0.0 | 0.00 | 0.00 | 0.00 | 66 | 1015.3 |
| 20260507133829 | 43 | 231 | 0.0 | 0.0 | 0.00 | 0.00 | 0.00 | 66 | 1015.3 |
| 20260507133331 | 42 | 232 | 0.0 | 0.0 | 0.00 | 0.00 | 0.00 | 67 | 1015.3 |
| 20260507132824 | 41 | 232 | 0.0 | 0.0 | 0.00 | 0.00 | 0.00 | 69 | 1015.2 |
| 20260507132318 | 40 | 232 | 0.0 | 0.0 | 0.00 | 0.00 | 0.00 | 71 | 1015.3 |
| 20260507131812 | 40 | 232 | 0.0 | 0.0 | 0.00 | 0.00 | 0.00 | 71 | 1015.1 |
| 20260507131307 | 40 | 232 | 0.0 | 0.0 | 0.00 | 0.00 | 0.00 | 70 | 1015.1 |
| 20260507130801 | 39 | 232 | 0.0 | 0.0 | 0.00 | 0.00 | 0.00 | 70 | 1015.0 |
| 20260507130255 | 39 | 232 | 0.0 | 1.7 | 0.00 | 0.00 | 0.00 | 70 | 1015.0 |
| 20260507125748 | 38 | 232 | 0.0 | 1.7 | 0.00 | 0.00 | 0.00 | 70 | 1015.0 |
| 20260507125242 | 38 | 232 | 0.0 | 1.7 | 0.00 | 0.00 | 0.00 | 70 | 1015.0 |
| 20260507124230 | 37 | 236 | 0.0 | 0.0 | 0.00 | 0.00 | 0.00 | 71 | 1014.7 |
| 20260507123725 | 37 | 236 | 0.0 | 0.0 | 0.00 | 0.00 | 0.00 | 72 | 1014.7 |
| 20260507123218 | 36 | 236 | 0.0 | 0.0 | 0.00 | 0.00 | 0.00 | 72 | 1014.6 |
| 20260507122713 | 36 | 235 | 0.0 | 0.0 | 0.00 | 0.00 | 0.00 | 72 | 1014.6 |
| 20260507122207 | 36 | 235 | 0.0 | 0.0 | 0.00 | 0.00 | 0.00 | 72 | 1014.6 |
| 20260507121659 | 36 | 235 | 0.0 | 0.0 | 0.00 | 0.00 | 0.00 | 72 | 1014.5 |
| 20260507121153 | 36 | 235 | 0.0 | 0.0 | 0.00 | 0.00 | 0.00 | 72 | 1014.6 |
| 20260507120142 | 36 | 235 | 0.0 | 1.7 | 0.00 | 0.00 | 0.00 | 72 | 1014.7 |
| 20260507115637 | 36 | 235 | 0.0 | 1.7 | 0.00 | 0.00 | 0.00 | 72 | 1014.6 |
| 20260507115131 | 36 | 235 | 0.0 | 1.7 | 0.00 | 0.00 | 0.00 | 72 | 1014.6 |
| 20260507114627 | 36 | 237 | 0.0 | 1.7 | 0.00 | 0.00 | 0.00 | 72 | 1014.6 |
| 20260507114119 | 36 | 237 | 0.0 | 1.7 | 0.00 | 0.00 | 0.00 | 72 | 1014.6 |
| 20260507113613 | 36 | 236 | 0.0 | 2.6 | 0.00 | 0.00 | 0.00 | 72 | 1014.6 |
| 20260507113106 | 36 | 236 | 0.9 | 2.6 | 0.00 | 0.00 | 0.00 | 72 | 1014.5 |
| 20260507112600 | 36 | 236 | 0.9 | 2.6 | 0.00 | 0.00 | 0.00 | 73 | 1014.5 |
| 20260507112054 | 36 | 236 | 0.9 | 3.5 | 0.00 | 0.00 | 0.00 | 73 | 1014.4 |
| 20260507111548 | 36 | 236 | 0.0 | 3.5 | 0.00 | 0.00 | 0.00 | 73 | 1014.5 |
| 20260507110536 | 36 | 236 | 0.9 | 3.5 | 0.00 | 0.00 | 0.00 | 73 | 1014.4 |
| 20260507105524 | 35 | 236 | 0.0 | 2.6 | 0.00 | 0.00 | 0.00 | 73 | 1014.5 |
| 20260507105018 | 35 | 234 | 0.0 | 3.5 | 0.00 | 0.00 | 0.00 | 73 | 1014.6 |
| 20260507104512 | 36 | 233 | 0.0 | 3.5 | 0.00 | 0.00 | 0.00 | 73 | 1014.6 |
| 20260507104006 | 36 | 233 | 0.0 | 0.0 | 0.00 | 0.00 | 0.00 | 73 | 1014.5 |
| 20260507103500 | 36 | 234 | 0.0 | 0.0 | 0.00 | 0.00 | 0.00 | 73 | 1014.5 |
| 20260507102954 | 36 | 234 | 0.0 | 0.0 | 0.00 | 0.00 | 0.00 | 74 | 1014.5 |
| 20260507102448 | 35 | 234 | 0.0 | 0.0 | 0.00 | 0.00 | 0.00 | 74 | 1014.7 |
| 20260507101436 | 35 | 234 | 0.0 | 0.0 | 0.00 | 0.00 | 0.00 | 75 | 1015.0 |
| 20260507100931 | 35 | 234 | 0.0 | 0.0 | 0.00 | 0.00 | 0.00 | 75 | 1014.8 |
| 20260507100424 | 35 | 234 | 0.0 | 0.0 | 0.00 | 0.00 | 0.00 | 76 | 1014.7 |
| 20260507094906 | 35 | 234 | 0.0 | 0.0 | 0.00 | 0.00 | 0.00 | 76 | 1015.1 |
| 20260507094401 | 35 | 233 | 0.0 | 0.0 | 0.00 | 0.00 | 0.00 | 76 | 1015.2 |
| 20260507093855 | 35 | 233 | 0.0 | 0.0 | 0.00 | 0.00 | 0.00 | 76 | 1015.2 |
| 20260507092842 | 35 | 233 | 0.0 | 0.0 | 0.00 | 0.00 | 0.00 | 77 | 1015.1 |
| 20260507092336 | 35 | 233 | 0.0 | 0.0 | 0.00 | 0.00 | 0.00 | 77 | 1015.1 |
| 20260507091325 | 35 | 233 | 0.0 | 0.0 | 0.00 | 0.00 | 0.00 | 78 | 1015.2 |
| 20260507090818 | 35 | 233 | 0.0 | 0.0 | 0.00 | 0.00 | 0.00 | 78 | 1015.2 |
| 20260507085807 | 35 | 233 | 0.0 | 0.0 | 0.00 | 0.00 | 0.00 | 78 | 1015.2 |
| 20260507085301 | 35 | 233 | 0.0 | 1.7 | 0.00 | 0.00 | 0.00 | 79 | 1015.1 |
| 20260507084754 | 35 | 233 | 0.0 | 1.7 | 0.00 | 0.00 | 0.00 | 79 | 1015.0 |
| 20260507084248 | 35 | 233 | 0.0 | 0.9 | 0.00 | 0.00 | 0.00 | 80 | 1015.1 |
| 20260507083742 | 35 | 233 | 0.0 | 2.6 | 0.00 | 0.00 | 0.00 | 80 | 1015.1 |
| 20260507083236 | 35 | 233 | 0.0 | 2.6 | 0.00 | 0.00 | 0.00 | 81 | 1015.0 |
| 20260507082730 | 35 | 238 | 0.0 | 0.0 | 0.00 | 0.00 | 0.00 | 82 | 1015.1 |
| 20260507082224 | 35 | 238 | 0.0 | 0.0 | 0.00 | 0.00 | 0.00 | 82 | 1015.2 |
| 20260507081719 | 35 | 238 | 0.0 | 0.0 | 0.00 | 0.00 | 0.00 | 83 | 1015.3 |
| 20260507081212 | 34 | 238 | 0.0 | 0.0 | 0.00 | 0.00 | 0.00 | 83 | 1015.2 |
| 20260507080200 | 34 | 238 | 0.0 | 0.0 | 0.00 | 0.00 | 0.00 | 83 | 1015.5 |
| 20260507075654 | 34 | 238 | 0.0 | 0.0 | 0.00 | 0.00 | 0.00 | 83 | 1015.5 |
| 20260507074642 | 34 | 238 | 0.0 | 0.0 | 0.00 | 0.00 | 0.00 | 84 | 1015.5 |
| 20260507074134 | 34 | 238 | 0.0 | 0.0 | 0.00 | 0.00 | 0.00 | 84 | 1015.5 |
| 20260507073134 | 35 | 238 | 0.0 | 1.7 | 0.00 | 0.00 | 0.00 | 84 | 1015.9 |
| 20260507072631 | 35 | 238 | 0.0 | 2.6 | 0.00 | 0.00 | 0.00 | 84 | 1015.8 |
| 20260507072130 | 34 | 238 | 0.9 | 3.5 | 0.00 | 0.00 | 0.00 | 84 | 1015.9 |
| 20260507071631 | 34 | 236 | 0.9 | 3.5 | 0.00 | 0.00 | 0.00 | 84 | 1015.8 |
| 20260507070129 | 34 | 239 | 0.9 | 3.5 | 0.00 | 0.00 | 0.00 | 85 | 1016.0 |
| 20260507065638 | 34 | 229 | 0.9 | 2.6 | 0.00 | 0.00 | 0.00 | 85 | 1016.0 |
| 20260507065129 | 34 | 228 | 0.0 | 2.6 | 0.00 | 0.00 | 0.00 | 85 | 1016.0 |
| 20260507064631 | 34 | 228 | 0.0 | 1.7 | 0.00 | 0.00 | 0.00 | 84 | 1016.0 |
| 20260507064125 | 34 | 228 | 0.0 | 2.6 | 0.00 | 0.00 | 0.00 | 85 | 1016.0 |
| 20260507063626 | 34 | 228 | 0.0 | 2.6 | 0.00 | 0.00 | 0.00 | 84 | 1016.0 |
| 20260507060628 | 34 | 227 | 0.0 | 3.5 | 0.00 | 0.00 | 0.00 | 84 | 1016.2 |
| 20260507055620 | 34 | 225 | 0.0 | 0.0 | 0.00 | 0.00 | 0.00 | 83 | 1016.2 |
| 20260507055114 | 34 | 225 | 0.0 | 0.0 | 0.00 | 0.00 | 0.00 | 83 | 1016.2 |
| 20260507053556 | 34 | 225 | 0.0 | 0.0 | 0.00 | 0.00 | 0.00 | 82 | 1016.4 |
| 20260507053049 | 33 | 225 | 0.0 | 0.0 | 0.00 | 0.00 | 0.00 | 82 | 1016.5 |
| 20260507052545 | 33 | 225 | 0.0 | 0.0 | 0.00 | 0.00 | 0.00 | 81 | 1016.6 |
| 20260507052038 | 33 | 225 | 0.0 | 0.0 | 0.00 | 0.00 | 0.00 | 81 | 1016.6 |
| 20260507051532 | 33 | 225 | 0.0 | 0.0 | 0.00 | 0.00 | 0.00 | 80 | 1016.7 |
| 20260507051026 | 33 | 225 | 0.0 | 0.0 | 0.00 | 0.00 | 0.00 | 80 | 1016.7 |
| 20260507050519 | 33 | 225 | 0.0 | 0.0 | 0.00 | 0.00 | 0.00 | 80 | 1016.7 |
| 20260507050014 | 33 | 225 | 0.0 | 0.0 | 0.00 | 0.00 | 0.00 | 80 | 1016.8 |
| 20260507045509 | 33 | 225 | 0.0 | 0.0 | 0.00 | 0.00 | 0.00 | 80 | 1016.8 |
| 20260507045002 | 33 | 225 | 0.0 | 0.0 | 0.00 | 0.00 | 0.00 | 79 | 1016.7 |
| 20260507044455 | 33 | 225 | 0.0 | 0.0 | 0.00 | 0.00 | 0.00 | 79 | 1016.9 |
| 20260507043950 | 34 | 225 | 0.0 | 0.0 | 0.00 | 0.00 | 0.00 | 79 | 1016.9 |
| 20260507043444 | 34 | 225 | 0.0 | 0.0 | 0.00 | 0.00 | 0.00 | 78 | 1016.9 |
| 20260507042938 | 34 | 225 | 0.0 | 0.0 | 0.00 | 0.00 | 0.00 | 78 | 1016.8 |
| 20260507042433 | 34 | 225 | 0.0 | 0.0 | 0.00 | 0.00 | 0.00 | 77 | 1016.8 |
| 20260507041420 | 34 | 225 | 0.0 | 0.0 | 0.00 | 0.00 | 0.00 | 76 | 1016.8 |
| 20260507040914 | 34 | 225 | 0.0 | 0.0 | 0.00 | 0.00 | 0.00 | 76 | 1016.8 |
| 20260507040409 | 35 | 225 | 0.0 | 0.0 | 0.00 | 0.00 | 0.00 | 76 | 1016.9 |
| 20260507035907 | 35 | 225 | 0.0 | 0.0 | 0.00 | 0.00 | 0.00 | 76 | 1017.2 |
| 20260507035408 | 35 | 225 | 0.0 | 0.0 | 0.00 | 0.00 | 0.00 | 76 | 1017.1 |
| 20260507034406 | 35 | 225 | 0.0 | 0.0 | 0.00 | 0.00 | 0.00 | 76 | 1017.1 |
| 20260507033903 | 35 | 225 | 0.0 | 0.0 | 0.00 | 0.00 | 0.00 | 76 | 1017.1 |
| 20260507033404 | 36 | 225 | 0.0 | 0.0 | 0.00 | 0.00 | 0.00 | 76 | 1016.9 |
| 20260507031901 | 36 | 225 | 0.0 | 0.0 | 0.00 | 0.00 | 0.00 | 76 | 1016.9 |
| 20260507030903 | 36 | 225 | 0.0 | 0.0 | 0.00 | 0.00 | 0.00 | 76 | 1016.9 |
| 20260507030400 | 36 | 225 | 0.0 | 0.0 | 0.00 | 0.00 | 0.00 | 75 | 1016.8 |
| 20260507025401 | 37 | 225 | 0.0 | 0.0 | 0.00 | 0.00 | 0.00 | 75 | 1016.8 |
| 20260507024901 | 37 | 225 | 0.0 | 0.0 | 0.00 | 0.00 | 0.00 | 75 | 1016.8 |
| 20260507024401 | 37 | 225 | 0.0 | 0.0 | 0.00 | 0.00 | 0.00 | 74 | 1016.7 |
| 20260507023858 | 37 | 225 | 0.0 | 0.0 | 0.00 | 0.00 | 0.00 | 74 | 1016.7 |
| 20260507022900 | 38 | 225 | 0.0 | 0.0 | 0.00 | 0.00 | 0.00 | 74 | 1016.6 |
| 20260507021900 | 38 | 225 | 0.0 | 0.0 | 0.00 | 0.00 | 0.00 | 73 | 1016.6 |
| 20260507021359 | 38 | 225 | 0.0 | 0.0 | 0.00 | 0.00 | 0.00 | 72 | 1016.6 |
| 20260507020859 | 38 | 225 | 0.0 | 0.0 | 0.00 | 0.00 | 0.00 | 72 | 1016.6 |
| 20260507020400 | 38 | 225 | 0.0 | 0.0 | 0.00 | 0.00 | 0.00 | 72 | 1016.6 |
| 20260507015859 | 39 | 225 | 0.0 | 0.0 | 0.00 | 0.00 | 0.00 | 71 | 1016.5 |
| 20260507015358 | 39 | 225 | 0.0 | 0.0 | 0.00 | 0.00 | 0.00 | 71 | 1016.5 |
| 20260507014859 | 39 | 225 | 0.0 | 0.0 | 0.00 | 0.00 | 0.00 | 71 | 1016.5 |
| 20260507014358 | 39 | 225 | 0.0 | 0.0 | 0.00 | 0.00 | 0.00 | 70 | 1016.5 |
| 20260507013858 | 39 | 225 | 0.0 | 0.0 | 0.00 | 0.00 | 0.00 | 70 | 1016.5 |
| 20260507012858 | 40 | 225 | 0.0 | 0.0 | 0.00 | 0.00 | 0.00 | 69 | 1016.6 |
| 20260507012359 | 40 | 225 | 0.0 | 0.0 | 0.00 | 0.00 | 0.00 | 69 | 1016.6 |
| 20260507011858 | 40 | 225 | 0.0 | 0.0 | 0.00 | 0.00 | 0.00 | 69 | 1016.6 |
| 20260507011400 | 40 | 225 | 0.0 | 0.0 | 0.00 | 0.00 | 0.00 | 68 | 1016.7 |
| 20260507010401 | 40 | 225 | 0.0 | 0.0 | 0.00 | 0.00 | 0.00 | 68 | 1016.7 |
| 20260507005358 | 41 | 225 | 0.0 | 0.0 | 0.00 | 0.00 | 0.00 | 66 | 1016.7 |
| 20260507004859 | 42 | 225 | 0.0 | 0.0 | 0.00 | 0.00 | 0.00 | 66 | 1016.7 |
| 20260507004358 | 42 | 225 | 0.0 | 0.0 | 0.00 | 0.00 | 0.00 | 67 | 1016.8 |
| 20260507003356 | 42 | 225 | 0.0 | 0.0 | 0.00 | 0.00 | 0.00 | 66 | 1016.9 |
| 20260507002856 | 43 | 225 | 0.0 | 0.0 | 0.00 | 0.00 | 0.00 | 64 | 1017.1 |
| 20260507002356 | 43 | 225 | 0.0 | 0.0 | 0.00 | 0.00 | 0.00 | 65 | 1017.2 |
| 20260507001856 | 43 | 225 | 0.0 | 0.0 | 0.00 | 0.00 | 0.00 | 65 | 1017.3 |
| 20260507001354 | 43 | 0 | 0.0 | 0.0 | 0.00 | 0.00 | 0.00 | 66 | 1017.2 |
| 20260507000852 | 43 | 0 | 0.0 | 0.0 | 0.00 | 0.00 | 0.00 | 65 | 1017.3 |
| 20260507000353 | 43 | 225 | 0.0 | 0.9 | 0.00 | 0.00 | 0.00 | 65 | 1017.4 |
| 20260506235847 | 43 | 225 | 0.0 | 1.7 | 0.00 | 0.00 | 0.00 | 65 | 1017.4 |
| 20260506235341 | 43 | 225 | 0.0 | 2.6 | 0.00 | 0.00 | 0.00 | 66 | 1017.5 |